Location: Branche des Alpilles
(43.6087°N, 4.6976°E)
Time: 12:07:42
(UTC+00:00)

H-2A R/B - Pass Details

Date: 30 November 2020
Orbit: 499 x 540 km, 97.3° (Epoch: 22 January)

Event Time Altitude Azimuth Distance (km) Brightness Sun altitude
Rises 16:37:47 0° 173° (S) 2,650 6.6 -6.0°
Reaches altitude 10° 16:39:53 10° 177° (S) 1,772 5.7 -6.3°
Maximum altitude 16:43:41 65° 259° (W) 591 3.3 -6.9°
Drops below altitude 10° 16:47:34 10° 342° (NNW) 1,806 5.4 -7.6°
Sets 16:49:43 0° 346° (NNW) 2,706 6.3 -7.9°
